User: anonymous   Login
Location: Unspecified
(0.0000°N, 0.0000°E)
Time: 14:10:46
(UTC+02:00)
Language:

Cosmos 1703 - Orbit

View from above orbital plane
View from above orbital plane
View from above satellite
View from above satellite

Ground track
Ground track

The orbit data is extracted from the following two-line orbital elements,

1 16262U 85108A   17085.73474844 +.00000503 +00000-0 +28848-4 0  9993
2 16262 082.4837 330.9270 0011531 196.4307 163.6550 15.10261339706196
Epoch (UTC): 26 March 2017 17:38:02
Eccentricity: 0.0011531
inclination: 82.4837°
perigee height: 527 km
apogee height: 543 km
right ascension of ascending node: 330.9270°
argument of perigee: 196.4307°
revolutions per day: 15.10261339
mean anomaly at epoch: 163.6550°
orbit number at epoch: 70619

The dashed part of the orbit path shows where the satellite is in the earth's shadow,  

DLR